SCP
0 0 0 0 0 0 0 0 0 0 0 0 0 0 0 0 0 0 0 0 0 0 0 0 -0 -0 -0 0 0 0 0 0 0 0 0 0 0 0 0 0 0 0 0
0 0 0 0 0 0 0 0 0 0 0 0 0 0 0 0 0 0 0 0 0 0 0 0 0 -0 -0 0 0 0 0 0 0 0 0 0 0 0 0 0 0 0 0
0 0 0 0 0 0 0 0 0 0 0 0 0 0 0 0 0 0 0 0 0 0 0 0 0 -0 -0 -0 0 0 0 0 0 0 0 0 0 0 0 0 0 0 0
0 0 0 0 0 0 0 0 0 0 0 0 0 0 0 0 0 0 0 0 0 0 0 0 0 -0 -0 -0 0 0 0 0 0 0 0 0 0 0 0 0 0 0 0
0 0 0 0 0 0 0 0 0 0 0 0 0 0 0 0 0 0 0 0 0 0 0 0 0 -0 -0 -0 -0 0 0 0 0 0 0 0 0 0 0 0 0 0 0
0 0 0 0 0 0 0 0 0 0 0 0 0 0 0 0 0 0 0 0 0 0 0 0 0 -0 -0 -0 -0 -0 0 0 0 0 0 0 0 0 0 0 0 0 0
0 0 0 0 0 0 0 0 0 0 0 0 0 0 0 0 0 0 0 0 0 0 0 0 0 -0 -0 -0 -0 -0 0 0 0 0 0 0 0 0 0 0 0 0 0
0 0 0 0 0 0 0 0 0 0 0 0 0 0 0 0 0 0 0 0 0 0 0 0 0 -0 -0 -0 -0 0 0 0 0 0 0 0 0 0 0 0 0 0 0
0 0 0 0 0 0 0 0 0 0 0 0 0 0 0 0 0 0 0 0 0 0 0 0 0 -0 -0 -0 -0 -0 0 0 0 0 0 0 0 0 0 0 0 0 0
0 0 0 0 0 0 0 0 0 0 0 0 0 0 0 0 0 0 0 0 0 0 0 0 0 0 -0 -0 -0 -0 0 0 0 0 0 0 0 0 0 0 0 0 0
0 0 0 0 0 0 0 0 0 0 0 0 0 0 0 0 0 0 0 0 0 0 0 0 0 0 -0 -0 -0 -0 -0 0 0 0 -0 -0 -0 0 0 0 0 0 0
0 0 0 0 0 0 0 0 0 0 0 0 0 0 0 0 0 0 0 0 0 0 0 0 0 0 -0 -0 -0 -0 -0 -0 0 0 0 0 -0 0 0 0 0 0 0
0 0 0 0 0 0 0 0 0 0 0 0 0 0 0 0 0 0 0 0 0 0 0 0 0 0 -0 -0 -0 -0 -0 -0 0 0 0 0 0 0 0 0 0 0 0
0 0 0 0 0 0 0 0 0 0 0 0 0 0 0 0 0 0 0 0 0 0 0 0 0 0 0 0 0 0 0 0 -0 0 0 0 0 0 0 0 0 0 0
0 0 0 0 0 0 0 0 0 0 0 0 0 0 0 0 0 0 0 0 0 0 0 0 0 0 0 0 0 0 0 0 0 0 0 0 0 0 0 0 0 0 0
0 0 0 0 0 0 0 0 0 0 0 0 0 0 0 0 0 0 0 0 0 0 0 0 0 0 0 0 0 0 0 0 0 0 0 0 0 0 0 0 0 0 0
0 0 0 0 0 0 0 0 0 0 0 0 0 0 0 0 0 0 0 0 0 0 0 0 0 0 0 0 -0 0 0 0 0 0 0 0 0 0 0 0 0 0 0
0 0 0 0 0 0 0 0 0 0 0 0 0 0 0 0 0 0 0 0 0 0 0 0 0 0 0 0 0 0 0 0 0 0 0 0 0 0 0 0 0 0 0
0 0 0 0 0 0 0 0 0 0 0 0 0 0 0 0 0 0 0 0 0 0 0 0 0 0 0 0 0 0 0 0 0 0 0 0 0 0 0 0 0 0 0
0 0 0 0 0 0 0 0 0 0 0 0 0 0 0 0 0 0 0 0 0 0 0 0 0 0 0 0 0 0 0 0 0 0 0 0 0 0 0 0 0 0 0
0 0 0 0 0 0 0 0 0 0 0 0 0 0 0 0 0 0 0 0 0 0 0 0 0 0 0 0 0 0 0 0 0 0 0 0 0 0 0 0 0 0 0
0 0 0 0 0 0 0 0 0 0 0 0 0 0 0 0 0 0 0 0 0 0 0 0 0 0 0 0 0 0 0 0 0 0 0 0 0 0 0 0 0 0 0
0 0 0 0 0 0 0 0 0 0 0 0 0 0 0 0 0 0 0 0 0 0 0 0 0 0 0 0 0 0 0 0 0 0 0 0 0 0 0 0 0 0 0
0 0 0 0 0 0 0 0 0 0 0 0 0 0 0 0 0 0 0 0 0 0 0 0 0 0 0 0 0 0 0 0 0 0 0 0 0 0 0 0 0 0 0
0 0 0 0 0 0 0 0 0 0 0 0 0 0 0 0 0 0 0 0 0 0 0 0 0 0 0 -0 -0 -0 0 0 0 0 0 0 0 0 0 0 0 0 0
0 0 0 0 0 0 0 0 0 0 0 0 0 0 0 0 0 0 0 0 0 0 0 0 0 0 0 -0 -0 -0 0 -0 0 0 0 0 0 0 0 0 0 0 0
Wind_Speed_500mb
34 25 18 14 8 12 19 24 26 30 34 36 37 37 39 43 47 43 37 30 31 35 39 45 48 53 60 64 65 58 48 33 26 24 24 21 19 21 21 23 25 26 28
38 29 21 18 8 8 14 19 21 26 31 34 35 35 36 42 46 47 39 29 30 32 37 41 48 52 59 63 66 60 51 34 26 21 19 17 12 15 18 19 22 23 23
44 33 26 21 11 5 9 14 17 22 28 31 32 33 37 44 48 51 39 30 25 29 32 39 45 50 59 63 64 62 53 39 26 20 17 16 10 9 11 15 18 18 19
49 38 31 25 14 5 4 9 14 20 27 29 31 32 34 39 47 48 38 31 23 24 26 33 40 44 54 59 58 59 51 44 34 27 24 19 12 7 7 7 10 10 12
54 43 36 29 19 9 1 5 11 19 26 30 31 31 31 36 44 43 39 33 25 20 20 25 32 35 40 46 48 54 50 43 40 34 30 24 20 11 5 3 6 9 11
59 48 42 34 23 13 6 2 9 19 24 29 29 31 33 37 42 46 43 35 26 23 19 19 26 32 33 43 45 47 46 44 39 35 32 28 22 16 10 7 8 12 10
63 54 47 39 28 18 11 5 8 16 22 26 30 32 34 37 43 43 41 37 28 24 21 18 23 30 34 42 43 46 47 42 38 33 29 28 23 15 12 11 12 10 11
69 59 52 44 33 24 16 9 9 14 19 24 28 33 36 38 44 45 42 35 28 22 19 19 23 27 36 39 39 44 47 44 40 35 30 25 21 14 8 7 8 7 19
75 64 56 47 36 28 20 13 11 12 16 20 26 31 33 36 43 44 42 35 28 19 18 19 21 26 33 36 37 40 45 45 38 30 27 23 17 12 11 7 12 19 23
80 67 58 50 40 32 24 18 13 12 14 19 24 30 35 36 41 43 43 36 27 21 19 18 18 24 28 34 36 38 43 44 40 31 26 23 20 10 7 9 14 18 21
80 69 63 54 44 36 29 22 16 13 14 18 22 29 33 36 41 44 41 36 30 24 23 20 21 26 29 33 35 37 38 35 33 29 26 25 25 19 14 10 14 12 15
82 73 67 60 51 42 34 26 19 13 14 16 20 24 30 34 40 43 39 35 29 24 24 25 28 29 32 32 34 34 32 29 32 28 29 31 29 28 22 15 14 18 14
88 79 72 63 54 46 38 30 23 16 13 13 13 19 26 31 37 38 34 28 25 23 23 25 26 27 28 29 33 32 30 33 36 36 36 38 32 26 21 19 22 26 32
91 83 76 68 60 52 43 34 25 18 14 10 10 14 21 26 33 35 33 25 22 21 22 19 23 26 29 29 29 36 40 41 41 38 32 28 28 27 24 23 30 35 45
92 86 80 72 64 56 44 34 29 22 14 9 7 10 16 25 32 35 35 28 20 19 24 18 14 16 21 31 37 38 40 42 41 38 30 26 28 29 31 28 34 42 45
99 93 85 78 70 60 53 48 39 28 20 14 9 8 15 22 25 30 34 36 23 17 14 14 18 20 24 30 38 42 44 49 46 40 34 26 25 31 32 36 37 41 42
100 94 88 81 74 68 60 48 42 35 27 20 14 10 10 14 19 25 30 36 31 21 8 15 18 19 25 28 32 41 47 47 47 44 39 32 24 27 29 32 34 32 38
100 91 87 83 76 69 60 50 40 28 24 20 16 12 8 9 14 20 26 30 26 24 18 14 15 16 19 22 25 31 37 42 45 47 44 39 29 25 29 31 31 28 27
104 95 88 81 76 68 59 51 43 36 30 24 19 15 10 5 8 14 20 21 26 29 27 21 17 13 14 16 20 25 30 38 42 45 48 42 37 29 27 28 27 27 28
102 92 88 83 79 71 63 56 49 41 34 28 22 17 13 8 5 7 14 16 21 26 27 27 24 17 13 11 13 18 23 27 35 42 45 45 39 35 28 24 26 29 30
107 100 91 85 80 74 68 59 49 42 35 30 26 21 18 14 8 3 7 12 15 18 22 23 26 25 19 11 9 11 16 21 27 35 40 42 42 37 33 27 26 29 26
108 101 94 89 84 78 68 58 52 46 40 35 28 24 19 17 14 8 3 4 9 12 13 17 18 22 23 19 11 7 8 13 18 24 32 38 39 39 33 28 27 27 24
108 101 96 92 85 77 68 61 55 49 42 37 30 24 21 19 17 15 12 6 4 7 9 9 13 15 19 21 20 14 7 6 9 15 23 30 35 38 36 32 26 24 23
107 101 97 95 89 80 72 65 58 50 44 37 31 27 23 21 19 18 17 13 9 5 6 5 7 9 13 16 18 19 16 10 5 8 14 20 27 32 34 32 30 27 24
105 101 98 94 89 85 76 68 60 54 47 38 33 28 24 21 20 20 20 18 15 11 6 5 4 3 5 9 13 14 17 15 10 3 7 11 17 24 30 31 30 26 25
105 100 95 92 89 85 78 69 62 56 48 40 34 28 24 22 22 20 21 22 20 18 14 9 6 5 2 3 5 10 11 15 15 9 3 6 9 14 20 26 28 26 24
Wind_Direction_500mb
220 228 235 243 281 334 351 355 354 8 7 5 5 6 6 5 4 8 6 7 9 17 17 15 15 15 17 16 20 17 17 13 360 7 11 21 39 57 66 74 81 86 85
216 220 224 229 246 320 352 353 358 13 12 10 10 9 9 9 4 9 9 12 13 16 15 14 14 14 16 17 18 15 18 21 11 11 12 25 43 66 67 72 81 83 84
213 215 217 220 223 290 348 350 5 20 19 14 14 10 11 11 11 9 10 8 12 17 15 14 15 11 16 17 15 13 18 26 30 31 28 32 53 74 82 78 80 78 81
209 210 212 214 213 232 341 351 14 27 26 20 19 14 11 8 13 4 11 9 9 16 18 14 17 14 17 18 11 8 15 25 35 46 48 48 58 100 96 80 79 82 74
206 207 208 206 205 202 222 353 27 37 30 22 21 16 8 4 18 359 8 6 10 19 24 17 19 17 19 24 13 7 15 22 31 41 46 51 62 78 99 131 111 100 93
203 204 206 200 197 190 181 36 41 45 34 28 21 17 9 6 19 0 7 7 10 18 33 27 16 15 19 31 20 20 21 20 26 33 37 40 45 54 75 121 142 126 101
201 202 203 197 192 185 178 144 66 54 42 31 26 19 12 6 9 7 10 7 8 18 32 30 27 15 18 33 21 24 26 28 30 31 32 33 33 38 59 104 120 108 113
201 201 200 195 188 183 174 152 95 68 52 37 28 22 16 9 7 8 15 8 7 17 35 36 27 21 27 23 23 26 25 26 29 27 27 27 32 39 54 106 126 123 124
201 200 198 193 187 182 172 158 123 89 63 47 34 26 18 15 13 14 20 17 18 37 42 39 28 31 30 26 22 25 26 26 26 27 27 27 33 44 67 100 140 143 131
200 198 195 190 186 181 173 163 145 108 73 53 39 29 22 18 19 21 23 23 36 46 47 36 29 36 31 27 23 19 22 21 22 25 33 32 35 50 95 118 142 160 139
198 195 193 188 186 181 177 169 158 123 85 60 43 33 25 21 24 25 27 34 48 47 52 47 43 38 35 30 25 26 21 15 21 31 37 41 43 55 65 102 159 165 164
195 193 191 188 186 183 179 175 165 142 100 67 45 35 31 28 28 27 31 40 51 53 52 50 44 35 31 26 26 26 20 19 29 29 38 39 41 47 61 88 128 153 163
193 193 191 189 186 184 182 177 174 157 117 85 57 41 37 35 35 31 34 43 50 52 50 44 41 34 29 28 27 24 24 27 32 33 37 37 37 44 54 91 110 127 129
193 192 190 189 187 185 180 179 178 163 138 116 74 49 44 40 42 39 39 44 51 55 57 48 41 34 34 37 36 34 34 33 34 37 39 50 58 58 63 85 117 124 131
195 193 191 188 189 186 182 182 179 172 158 143 109 61 50 43 40 40 41 46 53 55 53 42 50 52 48 47 46 44 44 42 41 42 44 55 72 73 74 93 125 128 126
195 194 192 190 188 186 185 183 179 182 175 173 152 90 54 49 45 39 42 44 47 58 47 58 60 57 51 49 49 48 47 44 42 42 46 58 75 78 76 94 110 115 121
200 196 193 192 190 189 189 191 187 181 180 178 161 125 80 54 50 49 42 40 32 44 39 64 63 59 55 48 43 47 46 45 43 43 47 53 69 90 89 97 110 116 113
201 201 198 194 193 193 191 190 193 190 180 178 169 149 116 72 58 56 49 42 40 43 53 60 67 65 58 54 50 50 50 48 47 46 49 53 68 90 93 89 99 117 117
201 201 199 196 195 194 191 190 190 188 185 188 181 171 152 116 76 64 59 47 47 46 49 53 62 67 65 52 49 49 46 48 48 49 48 53 60 77 92 88 89 98 116
201 202 201 197 196 194 192 193 192 191 190 192 187 183 168 163 130 79 69 57 47 53 48 51 54 59 70 59 53 51 47 48 51 53 53 50 55 63 78 93 95 100 103
199 200 201 198 197 195 195 194 194 193 192 192 190 189 183 178 186 154 80 77 66 50 51 47 50 51 57 63 53 55 52 48 50 53 55 54 53 58 61 74 99 97 100
200 199 198 198 197 197 197 195 195 193 194 197 195 195 191 185 185 196 178 92 87 76 58 52 48 52 51 51 53 59 60 59 56 57 57 57 56 59 62 65 89 101 100
200 199 198 197 198 198 196 196 198 197 196 197 197 197 197 197 190 196 205 211 153 104 84 68 57 50 55 51 47 52 61 66 62 66 62 59 56 58 62 67 77 93 94
200 199 199 197 196 197 197 198 199 200 200 200 200 202 202 203 197 202 209 209 217 188 124 92 63 53 52 57 48 44 51 61 60 66 71 65 61 58 59 63 66 88 110
199 200 200 199 197 197 196 199 201 202 203 203 203 204 207 205 204 205 206 214 214 228 213 155 131 55 30 51 65 49 43 52 55 75 77 76 66 61 59 61 68 70 86
198 200 200 200 199 199 198 200 202 205 205 206 208 207 208 210 211 209 210 215 218 218 229 221 195 179 185 332 44 70 47 41 42 61 98 106 93 76 68 63 64 72 85
Wind_Speed_850mb
34 25 18 14 8 12 19 24 26 30 34 36 37 37 39 43 47 43 37 30 31 35 39 45 48 53 60 64 65 58 48 33 26 24 24 21 19 21 21 23 25 26 28
38 29 21 18 8 8 14 19 21 26 31 34 35 35 36 42 46 47 39 29 30 32 37 41 48 52 59 63 66 60 51 34 26 21 19 17 12 15 18 19 22 23 23
44 33 26 21 11 5 9 14 17 22 28 31 32 33 37 44 48 51 39 30 25 29 32 39 45 50 59 63 64 62 53 39 26 20 17 16 10 9 11 15 18 18 19
49 38 31 25 14 5 4 9 14 20 27 29 31 32 34 39 47 48 38 31 23 24 26 33 40 44 54 59 58 59 51 44 34 27 24 19 12 7 7 7 10 10 12
54 43 36 29 19 9 1 5 11 19 26 30 31 31 31 36 44 43 39 33 25 20 20 25 32 35 40 46 48 54 50 43 40 34 30 24 20 11 5 3 6 9 11
59 48 42 34 23 13 6 2 9 19 24 29 29 31 33 37 42 46 43 35 26 23 19 19 26 32 33 43 45 47 46 44 39 35 32 28 22 16 10 7 8 12 10
63 54 47 39 28 18 11 5 8 16 22 26 30 32 34 37 43 43 41 37 28 24 21 18 23 30 34 42 43 46 47 42 38 33 29 28 23 15 12 11 12 10 11
69 59 52 44 33 24 16 9 9 14 19 24 28 33 36 38 44 45 42 35 28 22 19 19 23 27 36 39 39 44 47 44 40 35 30 25 21 14 8 7 8 7 19
75 64 56 47 36 28 20 13 11 12 16 20 26 31 33 36 43 44 42 35 28 19 18 19 21 26 33 36 37 40 45 45 38 30 27 23 17 12 11 7 12 19 23
80 67 58 50 40 32 24 18 13 12 14 19 24 30 35 36 41 43 43 36 27 21 19 18 18 24 28 34 36 38 43 44 40 31 26 23 20 10 7 9 14 18 21
80 69 63 54 44 36 29 22 16 13 14 18 22 29 33 36 41 44 41 36 30 24 23 20 21 26 29 33 35 37 38 35 33 29 26 25 25 19 14 10 14 12 15
82 73 67 60 51 42 34 26 19 13 14 16 20 24 30 34 40 43 39 35 29 24 24 25 28 29 32 32 34 34 32 29 32 28 29 31 29 28 22 15 14 18 14
88 79 72 63 54 46 38 30 23 16 13 13 13 19 26 31 37 38 34 28 25 23 23 25 26 27 28 29 33 32 30 33 36 36 36 38 32 26 21 19 22 26 32
91 83 76 68 60 52 43 34 25 18 14 10 10 14 21 26 33 35 33 25 22 21 22 19 23 26 29 29 29 36 40 41 41 38 32 28 28 27 24 23 30 35 45
92 86 80 72 64 56 44 34 29 22 14 9 7 10 16 25 32 35 35 28 20 19 24 18 14 16 21 31 37 38 40 42 41 38 30 26 28 29 31 28 34 42 45
99 93 85 78 70 60 53 48 39 28 20 14 9 8 15 22 25 30 34 36 23 17 14 14 18 20 24 30 38 42 44 49 46 40 34 26 25 31 32 36 37 41 42
100 94 88 81 74 68 60 48 42 35 27 20 14 10 10 14 19 25 30 36 31 21 8 15 18 19 25 28 32 41 47 47 47 44 39 32 24 27 29 32 34 32 38
100 91 87 83 76 69 60 50 40 28 24 20 16 12 8 9 14 20 26 30 26 24 18 14 15 16 19 22 25 31 37 42 45 47 44 39 29 25 29 31 31 28 27
104 95 88 81 76 68 59 51 43 36 30 24 19 15 10 5 8 14 20 21 26 29 27 21 17 13 14 16 20 25 30 38 42 45 48 42 37 29 27 28 27 27 28
102 92 88 83 79 71 63 56 49 41 34 28 22 17 13 8 5 7 14 16 21 26 27 27 24 17 13 11 13 18 23 27 35 42 45 45 39 35 28 24 26 29 30
107 100 91 85 80 74 68 59 49 42 35 30 26 21 18 14 8 3 7 12 15 18 22 23 26 25 19 11 9 11 16 21 27 35 40 42 42 37 33 27 26 29 26
108 101 94 89 84 78 68 58 52 46 40 35 28 24 19 17 14 8 3 4 9 12 13 17 18 22 23 19 11 7 8 13 18 24 32 38 39 39 33 28 27 27 24
108 101 96 92 85 77 68 61 55 49 42 37 30 24 21 19 17 15 12 6 4 7 9 9 13 15 19 21 20 14 7 6 9 15 23 30 35 38 36 32 26 24 23
107 101 97 95 89 80 72 65 58 50 44 37 31 27 23 21 19 18 17 13 9 5 6 5 7 9 13 16 18 19 16 10 5 8 14 20 27 32 34 32 30 27 24
105 101 98 94 89 85 76 68 60 54 47 38 33 28 24 21 20 20 20 18 15 11 6 5 4 3 5 9 13 14 17 15 10 3 7 11 17 24 30 31 30 26 25
105 100 95 92 89 85 78 69 62 56 48 40 34 28 24 22 22 20 21 22 20 18 14 9 6 5 2 3 5 10 11 15 15 9 3 6 9 14 20 26 28 26 24
Wind_Direction_850mb
220 228 235 243 281 334 351 355 354 8 7 5 5 6 6 5 4 8 6 7 9 17 17 15 15 15 17 16 20 17 17 13 360 7 11 21 39 57 66 74 81 86 85
216 220 224 229 246 320 352 353 358 13 12 10 10 9 9 9 4 9 9 12 13 16 15 14 14 14 16 17 18 15 18 21 11 11 12 25 43 66 67 72 81 83 84
213 215 217 220 223 290 348 350 5 20 19 14 14 10 11 11 11 9 10 8 12 17 15 14 15 11 16 17 15 13 18 26 30 31 28 32 53 74 82 78 80 78 81
209 210 212 214 213 232 341 351 14 27 26 20 19 14 11 8 13 4 11 9 9 16 18 14 17 14 17 18 11 8 15 25 35 46 48 48 58 100 96 80 79 82 74
206 207 208 206 205 202 222 353 27 37 30 22 21 16 8 4 18 359 8 6 10 19 24 17 19 17 19 24 13 7 15 22 31 41 46 51 62 78 99 131 111 100 93
203 204 206 200 197 190 181 36 41 45 34 28 21 17 9 6 19 0 7 7 10 18 33 27 16 15 19 31 20 20 21 20 26 33 37 40 45 54 75 121 142 126 101
201 202 203 197 192 185 178 144 66 54 42 31 26 19 12 6 9 7 10 7 8 18 32 30 27 15 18 33 21 24 26 28 30 31 32 33 33 38 59 104 120 108 113
201 201 200 195 188 183 174 152 95 68 52 37 28 22 16 9 7 8 15 8 7 17 35 36 27 21 27 23 23 26 25 26 29 27 27 27 32 39 54 106 126 123 124
201 200 198 193 187 182 172 158 123 89 63 47 34 26 18 15 13 14 20 17 18 37 42 39 28 31 30 26 22 25 26 26 26 27 27 27 33 44 67 100 140 143 131
200 198 195 190 186 181 173 163 145 108 73 53 39 29 22 18 19 21 23 23 36 46 47 36 29 36 31 27 23 19 22 21 22 25 33 32 35 50 95 118 142 160 139
198 195 193 188 186 181 177 169 158 123 85 60 43 33 25 21 24 25 27 34 48 47 52 47 43 38 35 30 25 26 21 15 21 31 37 41 43 55 65 102 159 165 164
195 193 191 188 186 183 179 175 165 142 100 67 45 35 31 28 28 27 31 40 51 53 52 50 44 35 31 26 26 26 20 19 29 29 38 39 41 47 61 88 128 153 163
193 193 191 189 186 184 182 177 174 157 117 85 57 41 37 35 35 31 34 43 50 52 50 44 41 34 29 28 27 24 24 27 32 33 37 37 37 44 54 91 110 127 129
193 192 190 189 187 185 180 179 178 163 138 116 74 49 44 40 42 39 39 44 51 55 57 48 41 34 34 37 36 34 34 33 34 37 39 50 58 58 63 85 117 124 131
195 193 191 188 189 186 182 182 179 172 158 143 109 61 50 43 40 40 41 46 53 55 53 42 50 52 48 47 46 44 44 42 41 42 44 55 72 73 74 93 125 128 126
195 194 192 190 188 186 185 183 179 182 175 173 152 90 54 49 45 39 42 44 47 58 47 58 60 57 51 49 49 48 47 44 42 42 46 58 75 78 76 94 110 115 121
200 196 193 192 190 189 189 191 187 181 180 178 161 125 80 54 50 49 42 40 32 44 39 64 63 59 55 48 43 47 46 45 43 43 47 53 69 90 89 97 110 116 113
201 201 198 194 193 193 191 190 193 190 180 178 169 149 116 72 58 56 49 42 40 43 53 60 67 65 58 54 50 50 50 48 47 46 49 53 68 90 93 89 99 117 117
201 201 199 196 195 194 191 190 190 188 185 188 181 171 152 116 76 64 59 47 47 46 49 53 62 67 65 52 49 49 46 48 48 49 48 53 60 77 92 88 89 98 116
201 202 201 197 196 194 192 193 192 191 190 192 187 183 168 163 130 79 69 57 47 53 48 51 54 59 70 59 53 51 47 48 51 53 53 50 55 63 78 93 95 100 103
199 200 201 198 197 195 195 194 194 193 192 192 190 189 183 178 186 154 80 77 66 50 51 47 50 51 57 63 53 55 52 48 50 53 55 54 53 58 61 74 99 97 100
200 199 198 198 197 197 197 195 195 193 194 197 195 195 191 185 185 196 178 92 87 76 58 52 48 52 51 51 53 59 60 59 56 57 57 57 56 59 62 65 89 101 100
200 199 198 197 198 198 196 196 198 197 196 197 197 197 197 197 190 196 205 211 153 104 84 68 57 50 55 51 47 52 61 66 62 66 62 59 56 58 62 67 77 93 94
200 199 199 197 196 197 197 198 199 200 200 200 200 202 202 203 197 202 209 209 217 188 124 92 63 53 52 57 48 44 51 61 60 66 71 65 61 58 59 63 66 88 110
199 200 200 199 197 197 196 199 201 202 203 203 203 204 207 205 204 205 206 214 214 228 213 155 131 55 30 51 65 49 43 52 55 75 77 76 66 61 59 61 68 70 86
198 200 200 200 199 199 198 200 202 205 205 206 208 207 208 210 211 209 210 215 218 218 229 221 195 179 185 332 44 70 47 41 42 61 98 106 93 76 68 63 64 72 85